Michal Klich

Recruteur en chef - Gornik Zabrze
20 Nov 2027
Samedi
Processus

Personnalité

Adaptabilité (8) Ambition (5) Controverse (16) Loyauté (6) Pression (6) Professionnalisme (6) Sportivité (3) Tempérament (12)

Profil

Style d'entraînement Démocratique
Diplôme Continental B
Détermination 11
Gestion des joueurs 11
Motivation 6
Discipline 9
Satisfaction professionnelle
100%
Fatigue
0%
Rôle Recruteur en chef
Salaire 78.6K p/s
Contrat 14.03.2029

Performance

Comportement Bon
Efficacité de l'entraînement
38%
Développement des joueurs
40%
Prévention des blessures
55%
Mise en place tactique
20%

Événements récents

A participé à une réunion de recrutement maintenant
A recommandé une cible de transfert maintenant
A participé à une réunion de recrutement 7j
A recommandé une cible de transfert 7j
A recommandé une cible de transfert 7j
A recommandé une cible de transfert 7j
Anniversaire 7j
A recommandé une cible de transfert 14j

Suivi en cours

90
Joueur Club Statut Capacité Confiance Observé Dernière observation Dernier vote
Juri Cisotti FCSB Actif 123 / 123 67% 1 01.06.2027 Approuver
Daniel Awuni Aduana Stars Actif 82 / 104 40% 1 31.05.2027 -
Sam Curtis Swindon Town Actif 108 / 112 40% 1 31.05.2027 -
Yaw Adjei Hasaacas Actif 71 / 97 40% 1 31.05.2027 -
Caio Vidal FC Copenhagen Actif 128 / 129 63% 1 11.01.2027 Approuver
Mateusz Bogusz Houston Dynamo Actif 142 / 146 40% 2 09.01.2027 -
Thulani Billiat Utrecht Actif 136 / 136 61% 1 01.01.2027 Approuver
Andre Brooks Sheffield United Actif 126 / 141 40% 1 31.12.2026 -
Pablo Rodríguez Lech Actif 135 / 113 40% 4 30.12.2026 -
Bobby Clark Derby County Actif 117 / 137 40% 1 30.12.2026 -
Koki Saito Queens Park Rangers Actif 125 / 128 40% 1 29.12.2026 -
Florentino Luís Ipswich Town Actif 131 / 136 40% 2 28.12.2026 -
Antoni Kozubal Lech Actif 105 / 108 40% 1 28.12.2026 -
Matthias Seidl Rapid Wien Actif 128 / 121 40% 2 21.12.2026 -
Edoardo Bove Watford Actif 136 / 131 40% 1 16.12.2026 -
Artem Slesar Zorya Actif 104 / 121 40% 1 16.12.2026 -
Tommy Conway Middlesbrough Actif 127 / 115 40% 1 12.12.2026 -
Othmane Maamma Watford Actif 122 / 128 40% 1 10.12.2026 -
Dijon Kameri Cracovia Actif 118 / 130 40% 2 09.12.2026 -
Jay Stansfield Birmingham Actif 135 / 114 40% 1 08.12.2026 Plus d'infos
Jovon Makama Norwich City Actif 132 / 113 40% 1 08.12.2026 -
Norbert Barczak Korona Actif 77 / 100 40% 1 08.12.2026 -
Roberto Massimo Legia Actif 122 / 129 40% 2 06.12.2026 -
Suleiman Camara Slovan Bratislava Actif 114 / 119 40% 3 06.12.2026 -
James Dornelly Peterborough United Actif 102 / 115 40% 1 06.12.2026 -
Alessio Zerbin Frosinone Actif 139 / 142 40% 1 05.12.2026 -
Patrik Wålemark Lech Actif 127 / 121 40% 3 03.12.2026 -
Rúben Vinagre Legia Actif 110 / 107 40% 4 03.12.2026 -
Riley Owen Wycombe Wanderers Actif 107 / 102 40% 1 03.12.2026 -
Jonathan De Irastorza Levante Actif 125 / 132 40% 1 02.12.2026 -
Alpha Touré FC Metz Actif 122 / 110 40% 1 02.12.2026 -
Relebohile Mofokeng Orlando Pirates Actif 117 / 130 40% 3 30.11.2026 -
Kaick FC Dallas Actif 103 / 111 40% 1 30.11.2026 -
Thomas Atiemo Wa All Stars Actif 98 / 81 40% 1 30.11.2026 -
Camilo Durán Bloemfontein Celtic Actif 129 / 106 40% 5 27.11.2026 -
Anders Klynge Jagiellonia Actif 129 / 122 40% 3 25.11.2026 -
Ammar Ramadan DAC Dunajska Streda Actif 127 / 125 40% 1 24.11.2026 -
Liel Abada Charlotte Football Club Actif 129 / 121 40% 2 23.11.2026 -
Mihael Mlinarić Zaglebie Actif 107 / 125 40% 2 21.11.2026 -
Vinko Rozić Istra 1961 Actif 119 / 108 40% 1 21.11.2026 -
Mduduzi Shabalala Kaizer Chiefs Actif 101 / 104 40% 1 20.11.2026 -
Alexander Warneryd Tromso Actif 121 / 136 40% 1 20.11.2026 -
Sead Hakšabanović Malmo FF Actif 119 / 122 40% 1 18.11.2026 -
Bénie Traoré New York City Actif 115 / 135 40% 1 16.11.2026 -
Martin Minchev Cracovia Actif 108 / 107 40% 1 14.11.2026 -
André Luiz Sporting Kansas City Actif 125 / 139 40% 1 12.11.2026 -
Antony Portland Timbers Actif 144 / 113 40% 3 11.11.2026 -
Sergio Lozano Jagiellonia Actif 125 / 129 40% 3 10.11.2026 -
Luis Palma Lech Actif 121 / 109 40% 2 09.11.2026 -
Reda Khadra Qarabag Actif 137 / 115 40% 1 09.11.2026 -
Gabriel Pirani San Diego Football Club Actif 134 / 149 40% 1 07.11.2026 -
Milan Vukotić Partizan Actif 121 / 121 40% 1 06.11.2026 -
Elias Achouri San Diego Football Club Actif 146 / 152 40% 2 05.11.2026 -
Samuele Vignato HNK Rijeka Actif 111 / 108 40% 1 05.11.2026 -
Lucas Sanabria LA Galaxy Actif 138 / 112 40% 2 04.11.2026 -
Kamogelo Sebelebele Orlando Pirates Actif 110 / 123 40% 1 04.11.2026 -
Dejan Zukić Vojvodina Actif 119 / 131 40% 1 03.11.2026 -
Gladson Sulemana Liberty Professionals Actif 83 / 89 40% 1 02.11.2026 -
Tim Drexler Red Bull Salzburg Actif 118 / 136 40% 1 02.11.2026 -
Łukasz Bejger NK Celje Actif 121 / 102 40% 2 31.10.2026 -
Wiktor Długosz Korona Actif 109 / 115 40% 1 30.10.2026 -
Martins Júnior Zira Actif 112 / 119 40% 1 29.10.2026 -
Joaquín Pereyra Minnesota United FC Actif 118 / 124 40% 1 27.10.2026 -
Armstrong Oko-Flex Levski Actif 127 / 131 40% 1 27.10.2026 -
Mariano Bracamonte Deportivo Riestra Actif 115 / 137 40% 1 25.10.2026 -
Jesus Ferreira Seattle Sounders Actif 121 / 118 40% 2 22.10.2026 -
Bryan Ramírez FC Cincinnati Actif 130 / 142 40% 1 20.10.2026 -
Tshepang Moremi Orlando Pirates Actif 122 / 121 40% 1 20.10.2026 -
Rajmund Molnár Pogon Actif 105 / 118 40% 1 19.10.2026 -
Kajetan Szmyt Lechia Actif 116 / 101 40% 1 16.10.2026 -
Riqui Puig LA Galaxy Actif 138 / 150 40% 1 07.10.2026 -
Hannes Wolf New York City Actif 136 / 114 40% 1 04.10.2026 -
Kelvin Yeboah Minnesota United FC Actif 134 / 128 40% 2 03.10.2026 -
Allahyar Sayyadmanesh Lech Actif 116 / 132 40% 1 02.10.2026 -
Shapi Suleymanov Sporting Kansas City Actif 104 / 126 40% 1 02.10.2026 -
Andrés Herrera Columbus Crew Actif 121 / 115 40% 2 29.09.2026 -
Rodrigo Conceição Jagiellonia Actif 123 / 112 40% 1 29.09.2026 -
Talles Magno New York City Actif 120 / 132 40% 1 28.09.2026 -
Aljoša Matko Ujpest Actif 111 / 129 40% 1 23.09.2026 -
David Ayala Inter Miami CF Actif 109 / 128 40% 1 20.09.2026 -
Hamzat Ojediran Colorado Rapids Actif 107 / 132 40% 1 20.09.2026 -
Duncan McGuire Houston Dynamo Actif 136 / 112 40% 1 19.09.2026 -
Nazar Voloshyn Dynamo Kyiv Actif 129 / 116 40% 1 19.09.2026 -
Rui Modesto Vancouver Whitecaps Actif 115 / 135 40% 1 18.09.2026 -
Aaron Connolly Ruch Actif 125 / 117 40% 2 16.09.2026 -
Thalente Mbatha Orlando Pirates Actif 103 / 130 40% 1 14.09.2026 -
Lukas Engel Real Salt Lake Actif 108 / 115 40% 1 14.09.2026 -
Ted Ku-DiPietro Colorado Rapids Actif 118 / 119 40% 1 13.09.2026 -
Filip Szymczak Zaglebie Actif 116 / 99 40% 1 12.09.2026 -
Tamar Svetlin Korona Actif 119 / 127 40% 1 09.09.2026 -